KUIPER-00069

导读

KUIPER-00069是美国亚马逊公司柯伊伯(Project Kuiper)星座规划中的一颗低轨互联网卫星,于2025年7月16日由美国发射入轨。该卫星隶属于亚马逊主导的柯伊伯巨型星座项目,项目旨在通过数千颗低轨卫星组网,为全球提供高速宽带互联网接入服务,填补偏远地区网络覆盖空白,KUIPER-00069将承担星座组网测试或服务运营任务,助力全球卫星互联网建设。

Basic Information
目录编号:
64816
目录名称:
KUIPER-00069
国际标识:
2025-151A
轨道中心:
EARTH
卫星名称:
KUIPER-00069
卫星全名:
KUIPER-00069
卫星状态:
在轨 (已飞行426 天)
发射日期:
2025-07-16 UTC
国别 :
美国 (US)
星等 :
--
This satellite is enrolled in the Space Conjunction Data Service (SCDS) and the current flight risk assessment level is: No High Risk
Orbit Information
数据来源 国际轨道数据 AOE轨道数据
星历时间 2026-09-15T01:31:23+0800
1天前
查看轨道信息
2026-09-14T23:00:00+0800
1天前
查看轨道信息
半长轴 7007.672km 7007.687km
偏心率 0.0000819 0.0000918
轨道倾角 51.902° 51.901°
近地点辐角 98.183° 85.670°
升交点赤经 164.717° 165.183°
平近点角 261.923° 73.979°
近地点 628.961km 628.906km
远地点 630.109km 630.194km
周期 97.302分钟 97.302分钟
每日圈数 14.799335 14.799286
Detailed Information
使用方式:
暂无
2D Orbit Map
3D Orbit Map
Orbit Altitude Analysis Chart
Orbit Inclination Analysis Chart
Orbit Comprehensive Analysis Chart
View Comprehensive Chart
Miss Distance Evolution Trend with All Objects Subscribe to Flight Safety Assessment
Collision Probability Evolution Trend with All Objects Subscribe to Flight Safety Assessment